Location: Courcelles
(49.2596°N, 1.7419°E)
Time: 21:49:42
(UTC+00:00)

SJ-12 - Pass Details

Date: 17 November 2025
Orbit: 517 x 528 km, 97.8° (Epoch: 10 December)

Event Time Altitude Azimuth Distance (km) Brightness Sun altitude
Rises 17:16:37 0° 162° (SSE) 2,644 7.3 -11.0°
Reaches altitude 10° 17:18:42 10° 161° (SSE) 1,758 6.4 -11.3°
Maximum altitude 17:22:29 80° 76° (ENE) 537 3.6 -11.9°
Drops below altitude 10° 17:26:18 10° 349° (NNW) 1,766 6.4 -12.5°
Sets 17:28:24 0° 348° (NNW) 2,657 7.3 -12.9°
